This demonstration page uses our WeatherBlox Daily Observations layout. Learn more.

Left ArrowRight Arrow

44.31136, -96.79839

Hourly Observations for August 9, 2017

Temp ( °F °C ) Dew Point ( °F °C ) Humidity (%) Winds ( mph kmh ) Pressure ( in mb ) Visibility ( mi km ) Precip ( " mm )
12:56 am 00:56 Clear 64 17.8 58 14.4 81 81 SSE 10 17 30.11 1020 N/A 0.00 0.00
1:56 am 01:56 Mostly Cloudy 63 17.2 58 14.4 84 84 S 7 11 30.10 1019 N/A 0.00 0.00
2:56 am 02:56 Cloudy with Light Rain 62 16.7 60 15.6 93 93 SSE 10 17 30.08 1019 N/A 0.03 0.76
3:56 am 03:56 Cloudy with Light Rain 63 17.2 59 15 87 87 S 12 19 30.09 1019 N/A 0.00 0.03
4:56 am 04:56 Cloudy with Light Rain 62 16.7 60 15.6 93 93 S 7 11 30.09 1019 N/A 0.13 3.30
5:56 am 05:56 Cloudy 62 16.7 61 16.1 96 96 SE 13 20 30.05 1018 N/A 0.03 0.76
6:56 am 06:56 Mostly Cloudy 62 16.7 60 15.6 93 93 SE 14 22 30.05 1018 N/A 0.00 0.03
7:56 am 07:56 Mostly Cloudy 62 16.7 60 15.6 93 93 SSE 13 20 30.05 1018 N/A 0.00 0.00
8:04 am 08:04 Mostly Cloudy 63 17 61 16 94 94 SSE 13 20 30.00 1016 N/A 0.00 0.00
8:42 am 08:42 Mostly Cloudy 63 17 61 16 94 94 SSE 10 17 29.97 1015 N/A 0.00 0.00
8:56 am 08:56 Mostly Cloudy 64 17.8 62 16.7 93 93 SSE 13 20 30.03 1017 N/A 0.00 0.00
9:21 am 09:21 Cloudy 64 18 63 17 94 94 S 14 22 29.97 1015 N/A 0.00 0.00
9:56 am 09:56 Cloudy 65 18.3 62 16.7 90 90 S 13 20 30.02 1017 N/A 0.00 0.03
10:12 am 10:12 Cloudy 66 19 63 17 88 88 S 12 19 29.97 1015 N/A 0.00 0.00
10:56 am 10:56 Cloudy 68 20 63 17.2 84 84 S 15 24 30.02 1017 N/A 0.00 0.00
11:39 am 11:39 Cloudy 70 21 64 18 83 83 SSW 12 19 29.94 1014 N/A 0.00 0.00
11:56 am 11:56 Cloudy 70 21.1 64 17.8 82 82 S 13 20 30.01 1016 N/A 0.00 0.00
12:39 pm 12:39 Cloudy 70 21 64 18 83 83 SW 7 11 29.94 1014 N/A 0.00 0.00
12:47 pm 12:47 Cloudy 70 21 64 18 83 83 SW 8 13 29.94 1014 N/A 0.00 0.00
12:56 pm 12:56 Cloudy 71 21.7 65 18.3 81 81 SW 6 9 30.01 1016 N/A 0.00 0.00
1:35 pm 13:35 Cloudy 72 22 64 18 78 78 SW 3 6 29.94 1014 N/A 0.00 0.00
1:56 pm 13:56 Mostly Cloudy 73 22.8 64 17.8 74 74 SW 8 13 30.00 1016 N/A 0.00 0.00
2:05 pm 14:05 Mostly Cloudy 73 23 64 18 74 74 WSW 7 11 29.91 1013 N/A 0.00 0.00
2:56 pm 14:56 Mostly Sunny 75 23.9 65 18.3 71 71 SW 7 11 29.99 1016 N/A 0.00 0.00
3:12 pm 15:12 Mostly Cloudy 75 24 64 18 69 69 WSW 7 11 29.88 1012 N/A 0.00 0.00
3:23 pm 15:23 Mostly Cloudy 75 24 64 18 69 69 W 7 11 29.88 1012 N/A 0.00 0.00
3:56 pm 15:56 Sunny 77 25 65 18.3 66 66 WSW 7 11 29.98 1015 N/A 0.00 0.00
4:56 pm 16:56 Mostly Sunny 78 25.6 65 18.3 64 64 W 13 20 29.96 1015 N/A 0.00 0.00
5:56 pm 17:56 Sunny 78 25.6 65 18.3 64 64 WSW 9 15 29.95 1014 N/A 0.00 0.00
6:56 pm 18:56 Sunny 78 25.6 65 18.3 64 64 SW 7 11 29.94 1014 N/A 0.00 0.00
7:25 pm 19:25 Sunny with Nearby Thunderstorms 75 24 64 18 69 69 SW 7 11 29.83 1010 N/A 0.00 0.00
7:56 pm 19:56 Windy with Storms Likely 72 22.2 64 17.8 76 76 W 20 31 29.96 1015 N/A 0.00 0.03
8:04 pm 20:04 Mostly Cloudy with Thunderstorms 72 22 64 18 78 78 W 16 26 29.88 1012 N/A 0.00 0.03
8:13 pm 20:13 Cloudy with Thunderstorms 72 22 64 18 78 78 W 12 19 29.88 1012 N/A 0.00 0.03
8:56 pm 20:56 Partly Cloudy 69 20.6 60 15.6 73 73 WNW 8 13 29.96 1015 N/A 0.00 0.03
9:56 pm 21:56 Clear 67 19.4 58 14.4 73 73 W 10 17 29.98 1015 N/A 0.00 0.00
10:56 pm 22:56 Clear 65 18.3 57 13.9 76 76 NW 10 17 30.01 1016 N/A 0.00 0.00
11:56 pm 23:56 Clear 62 16.7 57 13.9 84 84 W 5 7 30.03 1017 N/A 0.00 0.00

Powered by AerisWeather